Regional Weather Roundup
Issued by NWS

Home | Current Version | Previous Version | Graphics & Text | Print | Product List | Glossary On
Versions: 1 2 3 4 5 6 7 8 9 10 11 12 13 14 15 16 17 18 19 20 21 22 23 24 25 26 27 28 29 30 31 32 33 34 35 36 37 38 39 40 41 42 43 44 45 46 47 48 49 50
226
ASUS43 KLOT 232208
RWRIL

ILLINOIS REGIONAL WEATHER ROUNDUP
NATIONAL WEATHER SERVICE CHICAGO/ROMEOVILLE IL
400 PM CST MON JAN 23 2017

NOTE: "FAIR" INDICATES FEW OR NO CLOUDS BELOW 12,000 FEET WITH NO
SIGNIFICANT WEATHER AND/OR OBSTRUCTIONS TO VISIBILITY.

* THESE STATIONS ARE NOT UNDER NWS QUALITY CONTROL. THEY ALSO MAY NOT
  REPORT WEATHER SUCH AS PRECIPITATION OR FOG.

ILZ001-002-007-009-015-016-024-232300-
NORTHWEST ILLINOIS

CITY           SKY/WX    TMP DP  RH WIND       PRES   REMARKS
MOLINE         CLOUDY    40  34  79 W9        29.80S
STERLING*      CLOUDY    39  36  89 NW9       29.80R WCI  33
SAVANNA*       CLOUDY    39  34  82 N5        29.81S
$$

ILZ003-004-008-010-011-017-018-232300-
NORTH CENTRAL ILLINOIS

CITY           SKY/WX    TMP DP  RH WIND       PRES   REMARKS
ROCKFORD       CLOUDY    42  35  76 NW8       29.80R
FREEPORT*      CLOUDY    38  35  87 NW9       29.80S WCI  32
ROCHELLE*      CLOUDY    40  37  88 NW9       29.79R
DE KALB*       CLOUDY    40  36  87 N6        29.78R
PERU*          CLOUDY    40  35  83 N10       29.79S
$$

ILZ005-006-012>014-019>023-232300-
NORTHEAST ILLINOIS

CITY           SKY/WX    TMP DP  RH WIND       PRES   REMARKS
CHICAGO-OHARE  CLOUDY    42  35  76 NW9       29.74S
CHICAGO-MIDWAY MOCLDY    43  34  70 NW12      29.75R
AURORA         CLOUDY    41  36  82 NW9       29.77R
LANSING*       CLOUDY    40  37  89 N6        29.75R
JOLIET*        CLOUDY    43  37  79 NW6       29.77R
WAUKEGAN       CLOUDY    42  37  82 NW6       29.75R
DUPAGE AIRPORT CLOUDY    41  34  76 NW8       29.75S
KANKAKEE*      CLOUDY    40  35  80 NW7       29.76R
WHEELING       CLOUDY    42  35  76 NW7       29.76R
MORRIS*        CLOUDY    41  36  81 NW3       29.76S
ROMEOVILLE*    CLOUDY    41  37  88 N8        29.76S
NORTHERLY ISL    N/A     41  34  76 NW6         N/A
$$

LMZ740>746-232300-
SOUTHERN LAKE MICHIGAN

STATION/POSITION SKY/WX   TEMP    WIND        PRES    VSBY  WAVE
                          AIR SEA DIR/SP/G                  HT/PER
                          (F)     (DEG/KT/KT) (MB)    (MI)  (FT/S)
HARRISON CRIB              38     340/ 13/ 14   N/A
BURNHAM HARBOR             40     340/  5/ 11   N/A
CALUMET HARBOR             39     330/  7/ 11 1006.7S
BURNS HARBOR               36     320/  5/  7 1008.1R
MICHIGAN CITY              36     310/ 10/ 11   N/A
$$

ILZ025>027-034>036-040-047-049-050-058-095>099-232300-
WEST-CENTRAL ILLINOIS

CITY           SKY/WX    TMP DP  RH WIND       PRES   REMARKS
QUINCY         CLOUDY    38  32  79 NW13      29.84R WCI  30
GALESBURG*     CLOUDY    38  35  90 W12       29.81R WCI  30
MACOMB*        CLOUDY    39  35  84 NW13      29.84R WCI  32
JACKSONVILLE*  CLOUDY    40  33  77 NW9       29.82R
PITTSFIELD*    CLOUDY    40  33  76 W10G16    29.84S
$$

ILZ028>032-037-038-041>044-048-051>054-059>061-232300-
CENTRAL ILLINOIS

CITY           SKY/WX    TMP DP  RH WIND       PRES   REMARKS
PONTIAC        CLOUDY    41  39  93 NW7       29.78S
BLOOMINGTON    CLOUDY    39  35  86 N14       29.78S WCI  31
DECATUR        CLOUDY    42  37  82 NW12      29.78R
PEORIA         CLOUDY    42  35  76 VRB6      29.79S
LACON*         CLOUDY    40  37  88 NW7       29.79S
LINCOLN*       CLOUDY    43  37  78 NW7       29.79S
SPRINGFIELD    CLOUDY    43  35  73 NW10      29.81R
TAYLORVILLE    CLOUDY    41  34  76 NW10      29.80S
$$

ILZ033-039-045-046-055>057-062-063-232300-
EAST-CENTRAL ILLINOIS

CITY           SKY/WX    TMP DP  RH WIND       PRES   REMARKS
CHAMPAIGN      CLOUDY    39  35  86 NW15      29.77R WCI  31
RANTOUL*       CLOUDY    41  37  86 NW12      29.76R
MATTOON        CLOUDY    40  36  86 N21       29.76R
PARIS*         CLOUDY    40  37  90 NW12      29.76R
$$

ILZ079-100>102-232300-
SOUTHWEST ILLINOIS

CITY           SKY/WX    TMP DP  RH WIND       PRES   REMARKS
ALTON          CLOUDY    41  34  75 NW14      29.83S
BELLEVILLE     CLOUDY    42  36  77 NW10      29.81R
CAHOKIA*       CLOUDY    43  34  70 NW9       29.83R
SPARTA*        CLOUDY    41  34  75 NW10G16   29.82S
$$

ILZ064>066-069>071-074>076-080>082-084>086-088>090-092>094-232300-
SOUTH-CENTRAL ILLINOIS

CITY           SKY/WX    TMP DP  RH WIND       PRES   REMARKS
CARBONDALE     CLOUDY    42  36  79 N13       29.80S
CAIRO*         CLOUDY    44  36  74 NW14G20   29.80S
EFFINGHAM*     CLOUDY    42  38  86 NW13      29.79R
MARION         CLOUDY    45  37  76 N9G17     29.81R
MT. VERNON     CLOUDY    42  36  79 VRB5      29.80R
CENTRALIA*     CLOUDY    43  38  82 NW13      29.79R
SALEM*         CLOUDY    43  36  76 NW13G22   29.80S
METROPOLIS*    CLOUDY    44  37  74 NW7       29.80F
$$

ILZ067-068-072-073-078-083-087-091-232300-
SOUTHEAST ILLINOIS

CITY           SKY/WX    TMP DP  RH WIND       PRES   REMARKS
LAWRENCEVILLE  CLOUDY    41  37  86 NW15      29.76R
FLORA*         CLOUDY    43  37  80 NW9       29.80R
FAIRFIELD*     CLOUDY    42  36  79 NW6       29.78S
HARRISBURG*    CLOUDY    43  37  79 NW10G20   29.80R
ROBINSON*      CLOUDY    40  36  86 N14G22    29.77R
CARMI*         CLOUDY    42  37  81 NW17      29.77R
$$

ABBREVIATIONS USED IN REMARKS
   TC - TEMPERATURE IN CELSIUS
  WCI - WIND CHILL INDEX
   HX - HEAT INDEX
  VSB - VISIBILITY
$$





USA.gov is the U.S. government's official web portal to all federal, state and local government web resources and services.